Location: Glendale
(37.4556°N, 88.6714°W)
Time: 05:51:25
(UTC+00:00)

Cosmos 1602 - Pass Details

Date: 08 December 2019
Orbit: 515 x 534 km, 82.5° (Epoch: 24 January)

Event Time Altitude Azimuth Distance (km) Brightness Sun altitude
Rises 11:38:14 0° 189° (S) 2,619 7.4 -15.1°
Reaches altitude 10° 11:40:21 10° 190° (S) 1,736 6.5 -14.7°
Maximum altitude 11:44:09 78° 276° (W) 531 3.6 -14.0°
Drops below altitude 10° 11:47:59 10° 4° (N) 1,749 6.2 -13.3°
Sets 11:50:08 0° 6° (N) 2,641 7.2 -12.9°
